Time,TemperatureF,DewpointF,PressureIn,WindDirection,WindDirectionDegrees,WindSpeedMPH,WindSpeedGustMPH,Humidity,HourlyPrecipIn,Conditions,Clouds,dailyrainin,SoftwareType,DateUTC
2013-09-19 00:01:00,61.7,56.5,30.06,SSE,157,0.0,0.0,83,0.00,RMK 72.3/56.0,,0.00,WUHU21623XXSP,2013-09-19 04:01:00,
2013-09-19 00:06:00,61.7,56.5,30.07,SSW,202,0.0,0.0,83,0.00,RMK 72.3/56.0,,0.00,WUHU21623XXSP,2013-09-19 04:06:00,
2013-09-19 00:08:00,61.7,56.5,30.07,SSW,202,0.0,0.0,83,0.00,RMK 72.3/56.0,,0.00,WUHU21623XXSP,2013-09-19 04:08:00,
2013-09-19 00:13:00,61.6,56.7,30.07,SW,225,0.0,0.0,84,0.00,RMK 72.3/56.0,,0.00,WUHU21623XXSP,2013-09-19 04:13:00,
2013-09-19 00:18:00,61.4,56.5,30.07,SSW,202,0.0,0.0,84,0.00,RMK 72.3/56.0,,0.00,WUHU21623XXSP,2013-09-19 04:18:00,
2013-09-19 00:23:00,61.4,56.5,30.07,SSW,202,0.0,0.0,84,0.00,RMK 72.3/56.0,,0.00,WUHU21623XXSP,2013-09-19 04:23:00,
2013-09-19 00:28:00,61.4,56.5,30.06,SSW,202,0.0,0.0,84,0.00,RMK 72.3/56.0,,0.00,WUHU21623XXSP,2013-09-19 04:28:00,
2013-09-19 00:33:00,61.4,56.9,30.06,SSW,202,0.0,0.0,85,0.00,RMK 72.3/56.0,,0.00,WUHU21623XXSP,2013-09-19 04:33:00,
2013-09-19 00:38:00,61.2,56.7,30.05,SSW,202,0.0,0.0,85,0.00,RMK 72.3/57.0,,0.00,WUHU21623XXSP,2013-09-19 04:38:00,
2013-09-19 00:43:00,61.2,56.7,30.05,SSW,202,0.0,0.0,85,0.00,RMK 72.3/57.0,,0.00,WUHU21623XXSP,2013-09-19 04:43:00,
2013-09-19 00:48:00,61.0,56.5,30.06,SSW,202,0.0,0.0,85,0.00,RMK 72.3/57.0,,0.00,WUHU21623XXSP,2013-09-19 04:48:00,
2013-09-19 00:53:00,61.0,56.5,30.06,SSW,202,0.0,0.0,85,0.00,RMK 72.3/57.0,,0.00,WUHU21623XXSP,2013-09-19 04:53:00,
2013-09-19 00:58:00,60.8,56.3,30.06,SSW,202,0.0,0.0,85,0.00,RMK 72.1/57.0,,0.00,WUHU21623XXSP,2013-09-19 04:58:00,
2013-09-19 01:03:00,60.7,56.2,30.05,SSW,202,0.0,0.0,85,0.00,RMK 72.1/57.0,,0.00,WUHU21623XXSP,2013-09-19 05:03:00,
2013-09-19 01:08:00,60.5,56.0,30.05,SSW,202,0.0,0.0,85,0.00,RMK 72.1/57.0,,0.00,WUHU21623XXSP,2013-09-19 05:08:00,
2013-09-19 01:13:00,60.5,56.3,30.06,SSW,202,0.0,0.0,86,0.00,RMK 72.1/57.0,,0.00,WUHU21623XXSP,2013-09-19 05:13:00,
2013-09-19 01:18:00,60.3,56.1,30.06,SSW,202,0.0,0.0,86,0.00,RMK 72.1/57.0,,0.00,WUHU21623XXSP,2013-09-19 05:18:00,
2013-09-19 01:23:00,60.1,55.9,30.05,SSW,202,0.0,0.0,86,0.00,RMK 72.1/57.0,,0.00,WUHU21623XXSP,2013-09-19 05:23:00,
2013-09-19 01:28:00,59.9,55.7,30.06,SSW,202,0.0,0.0,86,0.00,RMK 72.0/57.0,,0.00,WUHU21623XXSP,2013-09-19 05:28:00,
2013-09-19 01:33:00,59.9,55.7,30.06,SSW,202,0.0,0.0,86,0.00,RMK 72.0/57.0,,0.00,WUHU21623XXSP,2013-09-19 05:33:00,
2013-09-19 01:38:00,59.9,55.7,30.06,SSW,202,0.0,0.0,86,0.00,RMK 72.0/57.0,,0.00,WUHU21623XXSP,2013-09-19 05:38:00,
2013-09-19 01:43:00,59.6,55.7,30.06,SSW,202,0.0,0.0,87,0.00,RMK 72.0/57.0,,0.00,WUHU21623XXSP,2013-09-19 05:43:00,
2013-09-19 01:48:00,59.6,55.7,30.06,SSW,202,0.0,0.0,87,0.00,RMK 72.0/57.0,,0.00,WUHU21623XXSP,2013-09-19 05:48:00,
2013-09-19 01:53:00,59.4,55.5,30.06,SSW,202,0.0,0.0,87,0.00,RMK 72.0/57.0,,0.00,WUHU21623XXSP,2013-09-19 05:53:00,
2013-09-19 01:58:00,59.4,55.5,30.06,SSW,202,0.0,0.0,87,0.00,RMK 72.0/57.0,,0.00,WUHU21623XXSP,2013-09-19 05:58:00,
2013-09-19 02:03:00,59.2,55.3,30.05,SSW,202,0.0,0.0,87,0.00,RMK 72.0/57.0,,0.00,WUHU21623XXSP,2013-09-19 06:03:00,
2013-09-19 02:08:00,59.2,55.3,30.05,SSW,202,0.0,0.0,87,0.00,RMK 72.0/57.0,,0.00,WUHU21623XXSP,2013-09-19 06:08:00,
2013-09-19 02:13:00,59.0,55.1,30.05,SSW,202,0.0,0.0,87,0.00,RMK 71.8/57.0,,0.00,WUHU21623XXSP,2013-09-19 06:13:00,
2013-09-19 02:18:00,59.0,55.4,30.05,SSW,202,0.0,0.0,88,0.00,RMK 71.8/57.0,,0.00,WUHU21623XXSP,2013-09-19 06:18:00,
2013-09-19 02:23:00,59.0,55.4,30.05,SSW,202,0.0,0.0,88,0.00,RMK 71.8/57.0,,0.00,WUHU21623XXSP,2013-09-19 06:23:00,
2013-09-19 02:28:00,58.9,55.3,30.05,SSW,202,0.0,0.0,88,0.00,RMK 71.8/57.0,,0.00,WUHU21623XXSP,2013-09-19 06:28:00,
2013-09-19 02:33:00,58.9,55.3,30.05,SSW,202,0.0,0.0,88,0.00,RMK 71.8/57.0,,0.00,WUHU21623XXSP,2013-09-19 06:33:00,
2013-09-19 02:38:00,58.7,55.1,30.05,SSW,202,0.0,0.0,88,0.00,RMK 71.8/57.0,,0.00,WUHU21623XXSP,2013-09-19 06:38:00,
2013-09-19 02:43:00,58.7,55.4,30.05,SSW,202,0.0,0.0,89,0.00,RMK 71.8/57.0,,0.00,WUHU21623XXSP,2013-09-19 06:43:00,
2013-09-19 02:48:00,58.9,55.6,30.04,SSW,202,0.0,0.0,89,0.00,RMK 71.6/57.0,,0.00,WUHU21623XXSP,2013-09-19 06:48:00,
2013-09-19 02:53:00,58.9,55.6,30.04,SSW,202,0.0,0.0,89,0.00,RMK 71.6/57.0,,0.00,WUHU21623XXSP,2013-09-19 06:53:00,
2013-09-19 02:58:00,58.9,55.6,30.04,SSW,202,0.0,0.0,89,0.00,RMK 71.6/57.0,,0.00,WUHU21623XXSP,2013-09-19 06:58:00,
2013-09-19 03:03:00,58.9,55.6,30.04,SSW,202,0.0,0.0,89,0.00,RMK 71.6/57.0,,0.00,WUHU21623XXSP,2013-09-19 07:03:00,
2013-09-19 03:08:00,59.0,56.0,30.04,SSW,202,0.0,0.0,90,0.00,RMK 71.6/59.0,,0.00,WUHU21623XXSP,2013-09-19 07:08:00,
2013-09-19 03:13:00,59.0,56.0,30.05,SSW,202,0.0,0.0,90,0.00,RMK 71.2/58.0,,0.00,WUHU21623XXSP,2013-09-19 07:13:00,
2013-09-19 03:18:00,59.0,56.0,30.04,SSW,202,0.0,0.0,90,0.00,RMK 71.2/58.0,,0.00,WUHU21623XXSP,2013-09-19 07:18:00,
2013-09-19 03:23:00,59.0,56.0,30.04,North,0,0.0,0.0,90,0.00,RMK 71.2/58.0,,0.00,WUHU21623XXSP,2013-09-19 07:23:00,
2013-09-19 03:28:00,59.2,56.2,30.04,SSW,202,0.0,0.0,90,0.00,RMK 71.2/58.0,,0.00,WUHU21623XXSP,2013-09-19 07:28:00,
2013-09-19 03:33:00,59.2,56.2,30.04,SSW,202,0.0,0.0,90,0.00,RMK 71.2/58.0,,0.00,WUHU21623XXSP,2013-09-19 07:33:00,
2013-09-19 03:38:00,59.2,56.2,30.04,SSW,202,0.0,0.0,90,0.00,RMK 71.2/58.0,,0.00,WUHU21623XXSP,2013-09-19 07:38:00,
2013-09-19 03:43:00,59.4,56.4,30.04,SSW,202,0.0,0.0,90,0.00,RMK 71.2/58.0,,0.00,WUHU21623XXSP,2013-09-19 07:43:00,
2013-09-19 03:48:00,59.4,56.4,30.04,SSW,202,0.0,0.0,90,0.00,RMK 71.2/58.0,,0.00,WUHU21623XXSP,2013-09-19 07:48:00,
2013-09-19 03:53:00,59.4,56.4,30.04,SSW,202,0.0,0.0,90,0.00,RMK 71.2/58.0,,0.00,WUHU21623XXSP,2013-09-19 07:53:00,
2013-09-19 03:58:00,59.4,56.7,30.04,SSW,202,0.0,0.0,91,0.00,RMK 71.2/58.0,,0.00,WUHU21623XXSP,2013-09-19 07:58:00,
2013-09-19 04:03:00,59.4,56.7,30.03,SSW,202,0.0,0.0,91,0.00,RMK 71.2/59.0,,0.00,WUHU21623XXSP,2013-09-19 08:03:00,
2013-09-19 04:08:00,59.4,56.7,30.03,SSW,202,0.0,0.0,91,0.00,RMK 71.2/58.0,,0.00,WUHU21623XXSP,2013-09-19 08:08:00,
2013-09-19 04:13:00,59.4,56.7,30.03,SSW,202,0.0,0.0,91,0.00,RMK 71.2/58.0,,0.00,WUHU21623XXSP,2013-09-19 08:13:00,
2013-09-19 04:18:00,59.2,56.5,30.03,SSW,202,0.0,0.0,91,0.00,RMK 71.2/58.0,,0.00,WUHU21623XXSP,2013-09-19 08:18:00,
2013-09-19 04:23:00,59.2,56.5,30.03,SSW,202,0.0,0.0,91,0.00,RMK 71.2/58.0,,0.00,WUHU21623XXSP,2013-09-19 08:23:00,
2013-09-19 04:28:00,59.0,56.3,30.03,SSW,202,0.0,0.0,91,0.00,RMK 71.2/58.0,,0.00,WUHU21623XXSP,2013-09-19 08:28:00,
2013-09-19 04:33:00,59.0,56.3,30.03,SSW,202,0.0,0.0,91,0.00,RMK 71.2/58.0,,0.00,WUHU21623XXSP,2013-09-19 08:33:00,
2013-09-19 04:38:00,59.0,56.3,30.03,SSW,202,0.0,0.0,91,0.00,RMK 71.2/58.0,,0.00,WUHU21623XXSP,2013-09-19 08:38:00,
2013-09-19 04:43:00,58.9,56.2,30.03,SSW,202,0.0,0.0,91,0.00,RMK 71.2/58.0,,0.00,WUHU21623XXSP,2013-09-19 08:43:00,
2013-09-19 04:48:00,58.7,56.0,30.03,SSW,202,0.0,0.0,91,0.00,RMK 71.2/58.0,,0.00,WUHU21623XXSP,2013-09-19 08:48:00,
2013-09-19 04:53:00,58.7,56.0,30.03,SSW,202,0.0,0.0,91,0.00,RMK 71.2/58.0,,0.00,WUHU21623XXSP,2013-09-19 08:53:00,
2013-09-19 04:58:00,58.3,55.6,30.03,SSW,202,0.0,0.0,91,0.00,RMK 71.2/58.0,,0.00,WUHU21623XXSP,2013-09-19 08:58:00,
2013-09-19 05:03:00,58.3,55.6,30.03,SSW,202,0.0,0.0,91,0.00,RMK 71.2/58.0,,0.00,WUHU21623XXSP,2013-09-19 09:03:00,
2013-09-19 05:08:00,58.3,55.6,30.03,SSW,202,0.0,0.0,91,0.00,RMK 71.2/58.0,,0.00,WUHU21623XXSP,2013-09-19 09:08:00,
2013-09-19 05:13:00,58.3,55.6,30.03,SSW,202,0.0,0.0,91,0.00,RMK 71.2/58.0,,0.00,WUHU21623XXSP,2013-09-19 09:13:00,
2013-09-19 05:18:00,58.3,55.6,30.02,SSW,202,0.0,0.0,91,0.00,RMK 71.2/58.0,,0.00,WUHU21623XXSP,2013-09-19 09:18:00,
2013-09-19 05:23:00,58.3,55.6,30.03,SSW,202,0.0,0.0,91,0.00,RMK 71.2/58.0,,0.00,WUHU21623XXSP,2013-09-19 09:23:00,
2013-09-19 05:28:00,58.3,55.6,30.03,SSW,202,0.0,0.0,91,0.00,RMK 71.2/59.0,,0.00,WUHU21623XXSP,2013-09-19 09:28:00,
2013-09-19 05:33:00,58.3,55.6,30.02,SSW,202,0.0,0.0,91,0.00,RMK 71.2/59.0,,0.00,WUHU21623XXSP,2013-09-19 09:33:00,
2013-09-19 05:38:00,58.3,55.6,30.02,SSW,202,0.0,0.0,91,0.00,RMK 71.2/59.0,,0.00,WUHU21623XXSP,2013-09-19 09:38:00,
2013-09-19 05:43:00,58.3,55.6,30.02,SSW,202,0.0,0.0,91,0.00,RMK 71.2/59.0,,0.00,WUHU21623XXSP,2013-09-19 09:43:00,
2013-09-19 05:48:00,58.3,55.6,30.03,SSW,202,0.0,0.0,91,0.00,RMK 71.2/59.0,,0.00,WUHU21623XXSP,2013-09-19 09:48:00,
2013-09-19 05:53:00,58.1,55.8,30.02,SSW,202,0.0,0.0,92,0.00,RMK 71.2/59.0,,0.00,WUHU21623XXSP,2013-09-19 09:53:00,
2013-09-19 05:58:00,58.3,55.9,30.03,SSW,202,0.0,0.0,92,0.00,RMK 71.2/59.0,,0.00,WUHU21623XXSP,2013-09-19 09:58:00,
2013-09-19 06:03:00,58.3,55.9,30.02,SSW,202,0.0,0.0,92,0.00,RMK 71.4/59.0,,0.00,WUHU21623XXSP,2013-09-19 10:03:00,
2013-09-19 06:08:00,58.3,55.9,30.02,SSW,202,0.0,0.0,92,0.00,RMK 71.4/59.0,,0.00,WUHU21623XXSP,2013-09-19 10:08:00,
2013-09-19 06:13:00,58.1,55.8,30.03,SSW,202,0.0,0.0,92,0.00,RMK 71.6/59.0,,0.00,WUHU21623XXSP,2013-09-19 10:13:00,
2013-09-19 06:18:00,58.1,55.8,30.03,SSW,202,0.0,0.0,92,0.00,RMK 71.6/59.0,,0.00,WUHU21623XXSP,2013-09-19 10:18:00,
2013-09-19 06:23:00,58.1,55.8,30.03,SSW,202,0.0,0.0,92,0.00,RMK 71.6/59.0,,0.00,WUHU21623XXSP,2013-09-19 10:23:00,
2013-09-19 06:28:00,58.1,55.8,30.03,SSW,202,0.0,0.0,92,0.00,RMK 71.6/59.0,,0.00,WUHU21623XXSP,2013-09-19 10:28:00,
2013-09-19 06:33:00,58.1,55.8,30.03,SSW,202,0.0,0.0,92,0.00,RMK 71.6/59.0,,0.00,WUHU21623XXSP,2013-09-19 10:33:00,
2013-09-19 06:38:00,58.1,55.8,30.03,SSW,202,0.0,0.0,92,0.00,RMK 71.6/59.0,,0.00,WUHU21623XXSP,2013-09-19 10:38:00,
2013-09-19 06:43:00,58.3,55.9,30.04,SSW,202,0.0,0.0,92,0.00,RMK 71.6/59.0,,0.00,WUHU21623XXSP,2013-09-19 10:43:00,
2013-09-19 06:48:00,58.3,55.9,30.04,SSW,202,0.0,0.0,92,0.00,RMK 71.6/59.0,,0.00,WUHU21623XXSP,2013-09-19 10:48:00,
2013-09-19 06:53:00,58.3,55.9,30.04,SE,135,0.0,0.0,92,0.00,RMK 71.6/58.0,,0.00,WUHU21623XXSP,2013-09-19 10:53:00,
2013-09-19 06:58:00,58.3,55.9,30.04,SE,135,0.0,0.0,92,0.00,RMK 71.6/58.0,,0.00,WUHU21623XXSP,2013-09-19 10:58:00,
2013-09-19 07:03:00,58.3,55.9,30.04,SE,135,0.0,0.0,92,0.00,RMK 71.6/59.0,,0.00,WUHU21623XXSP,2013-09-19 11:03:00,
2013-09-19 07:08:00,58.3,55.9,30.04,SE,135,0.0,0.0,92,0.00,RMK 71.6/59.0,,0.00,WUHU21623XXSP,2013-09-19 11:08:00,
2013-09-19 07:13:00,58.3,55.9,30.04,SE,135,0.0,0.0,92,0.00,RMK 71.6/59.0,,0.00,WUHU21623XXSP,2013-09-19 11:13:00,
2013-09-19 07:18:00,58.3,55.9,30.04,SE,135,0.0,0.0,92,0.00,RMK 71.6/59.0,,0.00,WUHU21623XXSP,2013-09-19 11:18:00,
2013-09-19 07:23:00,58.7,56.3,30.04,SE,135,0.0,0.0,92,0.00,RMK 71.6/59.0,,0.00,WUHU21623XXSP,2013-09-19 11:23:00,
2013-09-19 07:28:00,58.5,56.1,30.05,SE,135,0.0,0.0,92,0.00,RMK 71.6/59.0,,0.00,WUHU21623XXSP,2013-09-19 11:28:00,
2013-09-19 07:33:00,58.7,56.3,30.05,South,180,0.0,0.0,92,0.00,RMK 71.4/58.0,,0.00,WUHU21623XXSP,2013-09-19 11:33:00,
2013-09-19 07:38:00,58.7,56.3,30.05,SSE,157,0.0,0.0,92,0.00,RMK 71.4/58.0,,0.00,WUHU21623XXSP,2013-09-19 11:38:00,
2013-09-19 07:43:00,58.7,56.3,30.05,SSE,157,0.0,0.0,92,0.00,RMK 71.4/59.0,,0.00,WUHU21623XXSP,2013-09-19 11:43:00,
2013-09-19 07:48:00,58.9,56.5,30.05,SSE,157,0.0,0.0,92,0.00,RMK 71.4/59.0,,0.00,WUHU21623XXSP,2013-09-19 11:48:00,
2013-09-19 07:53:00,59.0,56.6,30.05,SSE,157,0.0,0.0,92,0.00,RMK 71.2/60.0,,0.00,WUHU21623XXSP,2013-09-19 11:53:00,
2013-09-19 07:58:00,59.0,56.6,30.05,South,180,0.0,0.0,92,0.00,RMK 70.9/61.0,,0.00,WUHU21623XXSP,2013-09-19 11:58:00,
2013-09-19 08:03:00,59.0,56.6,30.05,South,180,0.0,0.0,92,0.00,RMK 70.9/62.0,,0.00,WUHU21623XXSP,2013-09-19 12:03:00,
2013-09-19 08:08:00,59.0,56.6,30.06,South,180,0.0,0.0,92,0.00,RMK 70.7/62.0,,0.00,WUHU21623XXSP,2013-09-19 12:08:00,
2013-09-19 08:13:00,59.2,56.8,30.06,South,180,0.0,0.0,92,0.00,RMK 70.5/62.0,,0.00,WUHU21623XXSP,2013-09-19 12:13:00,
2013-09-19 08:18:00,59.2,57.1,30.06,South,180,0.0,0.0,93,0.00,RMK 70.5/61.0,,0.00,WUHU21623XXSP,2013-09-19 12:18:00,
2013-09-19 08:23:00,59.2,57.1,30.06,South,180,0.0,0.0,93,0.00,RMK 70.5/61.0,,0.00,WUHU21623XXSP,2013-09-19 12:23:00,
2013-09-19 08:28:00,59.4,57.3,30.05,SSW,202,0.0,0.0,93,0.00,RMK 70.5/61.0,,0.00,WUHU21623XXSP,2013-09-19 12:28:00,
2013-09-19 08:33:00,59.6,57.5,30.05,SSW,202,0.0,0.0,93,0.00,RMK 70.5/61.0,,0.00,WUHU21623XXSP,2013-09-19 12:33:00,
2013-09-19 08:38:00,59.6,57.5,30.06,SSW,202,0.0,0.0,93,0.00,RMK 70.5/61.0,,0.00,WUHU21623XXSP,2013-09-19 12:38:00,
2013-09-19 08:43:00,59.8,57.7,30.05,WSW,247,0.0,0.0,93,0.00,RMK 70.7/61.0,,0.00,WUHU21623XXSP,2013-09-19 12:43:00,
2013-09-19 08:48:00,59.9,57.5,30.06,WSW,247,0.0,0.0,92,0.00,RMK 70.7/61.0,,0.00,WUHU21623XXSP,2013-09-19 12:48:00,
2013-09-19 08:53:00,59.9,57.5,30.05,WSW,247,0.0,0.0,92,0.00,RMK 70.7/61.0,,0.00,WUHU21623XXSP,2013-09-19 12:53:00,
2013-09-19 08:58:00,60.1,57.7,30.06,SW,225,0.0,0.0,92,0.00,RMK 70.9/61.0,,0.00,WUHU21623XXSP,2013-09-19 12:58:00,
2013-09-19 09:03:00,60.1,57.7,30.05,SW,225,0.0,0.0,92,0.00,RMK 70.9/61.0,,0.00,WUHU21623XXSP,2013-09-19 13:03:00,
2013-09-19 09:08:00,60.5,58.1,30.05,SW,225,0.0,0.0,92,0.00,RMK 70.9/61.0,,0.00,WUHU21623XXSP,2013-09-19 13:08:00,
2013-09-19 09:13:00,60.5,58.1,30.05,South,180,0.0,0.0,92,0.00,RMK 70.9/60.0,,0.00,WUHU21623XXSP,2013-09-19 13:13:00,
2013-09-19 09:18:00,60.7,58.3,30.05,SSW,202,0.0,0.0,92,0.00,RMK 70.9/60.0,,0.00,WUHU21623XXSP,2013-09-19 13:18:00,
2013-09-19 09:23:00,60.8,58.4,30.05,SSW,202,0.0,0.0,92,0.00,RMK 70.9/60.0,,0.00,WUHU21623XXSP,2013-09-19 13:23:00,
2013-09-19 09:28:00,61.0,58.6,30.05,SSW,202,0.0,0.0,92,0.00,RMK 70.9/60.0,,0.00,WUHU21623XXSP,2013-09-19 13:28:00,
2013-09-19 09:33:00,61.2,58.8,30.05,SW,225,0.0,0.0,92,0.00,RMK 70.9/60.0,,0.00,WUHU21623XXSP,2013-09-19 13:33:00,
2013-09-19 09:38:00,61.4,59.0,30.05,SW,225,0.0,0.0,92,0.00,RMK 71.1/60.0,,0.00,WUHU21623XXSP,2013-09-19 13:38:00,
2013-09-19 09:43:00,61.7,59.3,30.05,SW,225,0.0,0.0,92,0.00,RMK 71.1/59.0,,0.00,WUHU21623XXSP,2013-09-19 13:43:00,
2013-09-19 09:48:00,61.9,59.5,30.05,SSW,202,0.0,0.0,92,0.00,RMK 71.1/59.0,,0.00,WUHU21623XXSP,2013-09-19 13:48:00,
2013-09-19 09:53:00,62.3,59.6,30.05,SSW,202,0.0,0.0,91,0.00,RMK 71.2/59.0,,0.00,WUHU21623XXSP,2013-09-19 13:53:00,
2013-09-19 09:58:00,62.6,60.2,30.05,SSW,202,0.0,0.0,92,0.00,RMK 71.2/59.0,,0.00,WUHU21623XXSP,2013-09-19 13:58:00,
2013-09-19 10:03:00,63.0,60.3,30.05,SSW,202,0.0,0.0,91,0.00,RMK 71.2/59.0,,0.00,WUHU21623XXSP,2013-09-19 14:03:00,
2013-09-19 10:08:00,63.2,60.5,30.05,SSW,202,0.0,0.0,91,0.00,RMK 71.2/59.0,,0.00,WUHU21623XXSP,2013-09-19 14:08:00,
2013-09-19 10:13:00,64.1,61.4,30.04,WSW,247,0.0,0.0,91,0.00,RMK 71.2/59.0,,0.00,WUHU21623XXSP,2013-09-19 14:13:00,
2013-09-19 10:18:00,64.6,61.9,30.04,SW,225,0.0,0.0,91,0.00,RMK 71.2/58.0,,0.00,WUHU21623XXSP,2013-09-19 14:18:00,
2013-09-19 10:23:00,65.3,62.3,30.05,SSW,202,0.0,0.0,90,0.00,RMK 71.4/58.0,,0.00,WUHU21623XXSP,2013-09-19 14:23:00,
2013-09-19 10:28:00,65.9,62.6,30.05,South,180,0.0,0.0,89,0.00,RMK 71.4/58.0,,0.00,WUHU21623XXSP,2013-09-19 14:28:00,
2013-09-19 10:33:00,66.4,63.0,30.04,South,180,0.0,0.0,89,0.00,RMK 71.6/58.0,,0.00,WUHU21623XXSP,2013-09-19 14:33:00,
2013-09-19 10:38:00,66.8,63.1,30.04,SE,135,0.0,0.0,88,0.00,RMK 71.6/58.0,,0.00,WUHU21623XXSP,2013-09-19 14:38:00,
2013-09-19 10:43:00,67.3,63.3,30.04,SSW,202,0.0,0.0,87,0.00,RMK 71.6/58.0,,0.00,WUHU21623XXSP,2013-09-19 14:43:00,
2013-09-19 10:48:00,67.7,63.7,30.04,SE,135,0.0,0.0,87,0.00,RMK 71.6/58.0,,0.00,WUHU21623XXSP,2013-09-19 14:48:00,
2013-09-19 10:53:00,68.2,64.2,30.04,SE,135,0.0,0.0,87,0.00,RMK 71.6/58.0,,0.00,WUHU21623XXSP,2013-09-19 14:53:00,
2013-09-19 10:58:00,68.9,64.6,30.03,SSW,202,0.0,0.0,86,0.00,RMK 71.6/58.0,,0.00,WUHU21623XXSP,2013-09-19 14:58:00,
2013-09-19 11:03:00,69.3,64.6,30.03,SW,225,0.0,0.0,85,0.00,RMK 71.6/58.0,,0.00,WUHU21623XXSP,2013-09-19 15:03:00,
2013-09-19 11:08:00,69.8,65.1,30.03,SSW,202,0.0,0.0,85,0.00,RMK 71.6/58.0,,0.00,WUHU21623XXSP,2013-09-19 15:08:00,
2013-09-19 11:13:00,70.4,65.0,30.03,SW,225,0.0,0.0,83,0.00,RMK 71.8/58.0,,0.00,WUHU21623XXSP,2013-09-19 15:13:00,
2013-09-19 11:18:00,70.7,65.3,30.04,SW,225,0.0,0.0,83,0.00,RMK 71.8/58.0,,0.00,WUHU21623XXSP,2013-09-19 15:18:00,
2013-09-19 11:23:00,70.9,65.5,30.03,SW,225,0.0,0.0,83,0.00,RMK 71.8/58.0,,0.00,WUHU21623XXSP,2013-09-19 15:23:00,
2013-09-19 11:28:00,71.5,66.1,30.03,SW,225,0.0,0.0,83,0.00,RMK 71.8/58.0,,0.00,WUHU21623XXSP,2013-09-19 15:28:00,
2013-09-19 11:33:00,71.6,65.9,30.03,WSW,247,0.0,0.0,82,0.00,RMK 71.8/58.0,,0.00,WUHU21623XXSP,2013-09-19 15:33:00,
2013-09-19 11:38:00,71.8,66.1,30.03,WSW,247,0.0,0.0,82,0.00,RMK 71.8/58.0,,0.00,WUHU21623XXSP,2013-09-19 15:38:00,
2013-09-19 11:43:00,72.2,66.5,30.03,SSW,202,0.0,0.0,82,0.00,RMK 72.0/58.0,,0.00,WUHU21623XXSP,2013-09-19 15:43:00,
2013-09-19 11:48:00,72.2,66.1,30.03,West,270,0.0,0.0,81,0.00,RMK 72.0/58.0,,0.00,WUHU21623XXSP,2013-09-19 15:48:00,
2013-09-19 11:53:00,72.5,66.4,30.03,SW,225,0.0,0.0,81,0.00,RMK 72.0/58.0,,0.00,WUHU21623XXSP,2013-09-19 15:53:00,
2013-09-19 11:58:00,72.4,66.0,30.02,SW,225,0.0,0.0,80,0.00,RMK 72.0/58.0,,0.00,WUHU21623XXSP,2013-09-19 15:58:00,
2013-09-19 12:03:00,72.5,66.1,30.03,South,180,0.0,0.0,80,0.00,RMK 72.0/58.0,,0.00,WUHU21623XXSP,2013-09-19 16:03:00,
2013-09-19 12:08:00,72.5,66.1,30.03,WSW,247,0.0,0.0,80,0.00,RMK 72.0/58.0,,0.00,WUHU21623XXSP,2013-09-19 16:08:00,
2013-09-19 12:13:00,72.9,66.5,30.03,SSW,202,0.0,0.0,80,0.00,RMK 72.1/58.0,,0.00,WUHU21623XXSP,2013-09-19 16:13:00,
2013-09-19 12:18:00,73.6,67.1,30.02,SSW,202,0.0,0.0,80,0.00,RMK 72.1/57.0,,0.00,WUHU21623XXSP,2013-09-19 16:18:00,
2013-09-19 12:23:00,73.8,67.0,30.03,SW,225,0.0,0.0,79,0.00,RMK 72.1/57.0,,0.00,WUHU21623XXSP,2013-09-19 16:23:00,
2013-09-19 12:28:00,74.3,67.1,30.02,SSW,202,0.0,0.0,78,0.00,RMK 72.1/57.0,,0.00,WUHU21623XXSP,2013-09-19 16:28:00,
2013-09-19 12:33:00,74.9,67.7,30.03,West,270,0.0,0.0,78,0.00,RMK 72.1/57.0,,0.00,WUHU21623XXSP,2013-09-19 16:33:00,
2013-09-19 12:38:00,74.9,67.3,30.03,South,180,0.0,0.0,77,0.00,RMK 72.1/57.0,,0.00,WUHU21623XXSP,2013-09-19 16:38:00,
2013-09-19 12:43:00,75.2,67.6,30.02,ESE,112,0.0,0.0,77,0.00,RMK 72.3/57.0,,0.00,WUHU21623XXSP,2013-09-19 16:43:00,
2013-09-19 12:48:00,75.2,67.6,30.02,SW,225,0.0,0.0,77,0.00,RMK 72.3/57.0,,0.00,WUHU21623XXSP,2013-09-19 16:48:00,
2013-09-19 12:53:00,75.4,67.8,30.02,WSW,247,0.0,0.0,77,0.00,RMK 72.3/57.0,,0.00,WUHU21623XXSP,2013-09-19 16:53:00,
2013-09-19 12:58:00,75.8,68.2,30.02,SW,225,0.0,0.0,77,0.00,RMK 72.3/57.0,,0.00,WUHU21623XXSP,2013-09-19 16:58:00,
2013-09-19 13:03:00,75.8,68.2,30.02,ESE,112,0.0,0.0,77,0.00,RMK 72.3/57.0,,0.00,WUHU21623XXSP,2013-09-19 17:03:00,
2013-09-19 13:08:00,75.6,67.6,30.02,SE,135,0.0,0.0,76,0.00,RMK 72.3/57.0,,0.00,WUHU21623XXSP,2013-09-19 17:08:00,
2013-09-19 13:13:00,75.6,67.6,30.01,SSW,202,0.0,0.0,76,0.00,RMK 72.3/57.0,,0.00,WUHU21623XXSP,2013-09-19 17:13:00,
2013-09-19 13:18:00,75.6,67.6,30.01,SW,225,0.0,0.0,76,0.00,RMK 72.3/57.0,,0.00,WUHU21623XXSP,2013-09-19 17:18:00,
2013-09-19 13:23:00,75.8,67.8,30.01,SW,225,0.0,0.0,76,0.00,RMK 72.5/57.0,,0.00,WUHU21623XXSP,2013-09-19 17:23:00,
2013-09-19 13:28:00,75.8,67.8,30.01,WSW,247,0.0,0.0,76,0.00,RMK 72.5/57.0,,0.00,WUHU21623XXSP,2013-09-19 17:28:00,
2013-09-19 13:33:00,75.6,67.3,30.01,SW,225,0.0,0.0,75,0.00,RMK 72.5/57.0,,0.00,WUHU21623XXSP,2013-09-19 17:33:00,
2013-09-19 13:38:00,75.6,67.6,30.01,South,180,0.0,0.0,76,0.00,RMK 72.5/57.0,,0.00,WUHU21623XXSP,2013-09-19 17:38:00,
2013-09-19 13:43:00,75.4,67.5,30.01,WSW,247,0.0,0.0,76,0.00,RMK 72.5/57.0,,0.00,WUHU21623XXSP,2013-09-19 17:43:00,
2013-09-19 13:48:00,75.6,67.6,30.01,SSW,202,0.0,0.0,76,0.00,RMK 72.5/57.0,,0.00,WUHU21623XXSP,2013-09-19 17:48:00,
2013-09-19 13:53:00,75.8,67.8,30.01,SSW,202,0.0,0.0,76,0.00,RMK 72.5/57.0,,0.00,WUHU21623XXSP,2013-09-19 17:53:00,
2013-09-19 13:58:00,76.1,68.1,30.00,South,180,0.0,0.0,76,0.00,RMK 72.5/57.0,,0.00,WUHU21623XXSP,2013-09-19 17:58:00,
2013-09-19 14:03:00,76.3,68.7,30.00,SSW,202,0.0,0.0,77,0.00,RMK 72.5/57.0,,0.00,WUHU21623XXSP,2013-09-19 18:03:00,
2013-09-19 14:08:00,76.3,68.0,30.00,SW,225,0.0,0.0,75,0.00,RMK 72.5/57.0,,0.00,WUHU21623XXSP,2013-09-19 18:08:00,
2013-09-19 14:13:00,76.7,68.7,30.01,SSE,157,0.0,0.0,76,0.00,RMK 72.5/57.0,,0.00,WUHU21623XXSP,2013-09-19 18:13:00,
2013-09-19 14:18:00,76.7,68.0,30.00,South,180,0.0,0.0,74,0.00,RMK 72.7/57.0,,0.00,WUHU21623XXSP,2013-09-19 18:18:00,
2013-09-19 14:23:00,76.7,68.0,30.00,NE,45,0.0,0.0,74,0.00,RMK 72.7/57.0,,0.00,WUHU21623XXSP,2013-09-19 18:23:00,
2013-09-19 14:28:00,77.0,68.3,30.00,SW,225,0.0,0.0,74,0.00,RMK 72.7/57.0,,0.00,WUHU21623XXSP,2013-09-19 18:28:00,
2013-09-19 14:33:00,77.2,68.4,30.00,WSW,247,0.0,0.0,74,0.00,RMK 72.7/57.0,,0.00,WUHU21623XXSP,2013-09-19 18:33:00,
2013-09-19 14:38:00,77.4,68.3,29.99,SSW,202,0.0,0.0,73,0.00,RMK 72.7/58.0,,0.00,WUHU21623XXSP,2013-09-19 18:38:00,
2013-09-19 14:43:00,77.4,68.3,30.00,SW,225,0.0,0.0,73,0.00,RMK 72.7/58.0,,0.00,WUHU21623XXSP,2013-09-19 18:43:00,
2013-09-19 14:48:00,77.4,68.3,30.00,SW,225,0.0,0.0,73,0.00,RMK 72.7/58.0,,0.00,WUHU21623XXSP,2013-09-19 18:48:00,
2013-09-19 14:53:00,77.2,68.1,29.99,South,180,0.0,0.0,73,0.00,RMK 72.7/57.0,,0.00,WUHU21623XXSP,2013-09-19 18:53:00,
2013-09-19 14:58:00,76.7,67.6,29.99,SSW,202,0.0,0.0,73,0.00,RMK 72.7/57.0,,0.00,WUHU21623XXSP,2013-09-19 18:58:00,
2013-09-19 15:03:00,76.5,67.8,29.99,South,180,0.0,0.0,74,0.00,RMK 72.7/58.0,,0.00,WUHU21623XXSP,2013-09-19 19:03:00,
2013-09-19 15:08:00,76.3,67.6,29.99,SSW,202,0.0,0.0,74,0.00,RMK 72.7/58.0,,0.00,WUHU21623XXSP,2013-09-19 19:08:00,
2013-09-19 15:13:00,76.3,68.0,29.98,SW,225,0.0,0.0,75,0.00,RMK 72.7/58.0,,0.00,WUHU21623XXSP,2013-09-19 19:13:00,
2013-09-19 15:18:00,76.3,68.3,29.98,SSW,202,0.0,0.0,76,0.00,RMK 72.7/58.0,,0.00,WUHU21623XXSP,2013-09-19 19:18:00,
2013-09-19 15:23:00,76.3,68.3,29.98,SW,225,0.0,0.0,76,0.00,RMK 72.7/58.0,,0.00,WUHU21623XXSP,2013-09-19 19:23:00,
2013-09-19 15:28:00,76.3,68.3,29.98,SSW,202,0.0,0.0,76,0.00,RMK 72.7/57.0,,0.00,WUHU21623XXSP,2013-09-19 19:28:00,
2013-09-19 15:33:00,76.3,68.3,29.98,SW,225,0.0,0.0,76,0.00,RMK 72.7/58.0,,0.00,WUHU21623XXSP,2013-09-19 19:33:00,
2013-09-19 15:38:00,76.3,68.3,29.98,WSW,247,0.0,0.0,76,0.00,RMK 72.7/58.0,,0.00,WUHU21623XXSP,2013-09-19 19:38:00,
2013-09-19 15:43:00,76.3,68.7,29.98,SW,225,0.0,0.0,77,0.00,RMK 72.9/58.0,,0.00,WUHU21623XXSP,2013-09-19 19:43:00,
2013-09-19 15:47:00,76.1,68.5,29.98,WSW,247,0.0,0.0,77,0.00,RMK 72.7/58.0,,0.00,WUHU21623XXSP,2013-09-19 19:47:00,
2013-09-19 15:52:00,76.1,68.5,29.98,SW,225,0.0,0.0,77,0.00,RMK 72.9/57.0,,0.00,WUHU21623XXSP,2013-09-19 19:52:00,
2013-09-19 15:58:00,76.1,68.5,29.97,SSE,157,0.0,0.0,77,0.00,RMK 72.9/58.0,,0.00,WUHU21623XXSP,2013-09-19 19:58:00,
2013-09-19 16:03:00,76.1,68.5,29.97,SW,225,0.0,0.0,77,0.00,RMK 72.9/58.0,,0.00,WUHU21623XXSP,2013-09-19 20:03:00,
2013-09-19 16:08:00,76.1,68.5,29.97,WSW,247,0.0,0.0,77,0.00,RMK 72.9/58.0,,0.00,WUHU21623XXSP,2013-09-19 20:08:00,
2013-09-19 16:13:00,76.1,68.5,29.97,South,180,0.0,0.0,77,0.00,RMK 72.9/58.0,,0.00,WUHU21623XXSP,2013-09-19 20:13:00,
2013-09-19 16:17:00,76.3,68.7,29.97,SW,225,0.0,0.0,77,0.00,RMK 72.9/58.0,,0.00,WUHU21623XXSP,2013-09-19 20:17:00,
2013-09-19 16:22:00,76.3,68.3,29.97,South,180,0.0,0.0,76,0.00,RMK 72.9/58.0,,0.00,WUHU21623XXSP,2013-09-19 20:22:00,
2013-09-19 16:27:00,76.3,68.3,29.97,SSE,157,0.0,0.0,76,0.00,RMK 72.9/59.0,,0.00,WUHU21623XXSP,2013-09-19 20:27:00,
2013-09-19 16:32:00,76.3,68.3,29.97,South,180,0.0,0.0,76,0.00,RMK 72.9/58.0,,0.00,WUHU21623XXSP,2013-09-19 20:32:00,
2013-09-19 16:37:00,76.5,68.5,29.97,SW,225,0.0,0.0,76,0.00,RMK 72.9/58.0,,0.00,WUHU21623XXSP,2013-09-19 20:37:00,
2013-09-19 16:42:00,76.5,67.8,29.96,SSW,202,0.0,0.0,74,0.00,RMK 72.9/58.0,,0.00,WUHU21623XXSP,2013-09-19 20:42:00,
2013-09-19 16:47:00,76.3,67.6,29.96,SW,225,0.0,0.0,74,0.00,RMK 72.9/59.0,,0.00,WUHU21623XXSP,2013-09-19 20:47:00,
2013-09-19 16:52:00,76.3,67.6,29.96,SW,225,0.0,0.0,74,0.00,RMK 73.0/58.0,,0.00,WUHU21623XXSP,2013-09-19 20:52:00,
2013-09-19 16:57:00,76.3,67.6,29.96,WSW,247,0.0,0.0,74,0.00,RMK 73.0/58.0,,0.00,WUHU21623XXSP,2013-09-19 20:57:00,
2013-09-19 17:02:00,76.3,67.6,29.97,WSW,247,0.0,0.0,74,0.00,RMK 73.0/59.0,,0.00,WUHU21623XXSP,2013-09-19 21:02:00,
2013-09-19 17:07:00,76.3,67.6,29.97,SW,225,0.0,0.0,74,0.00,RMK 73.0/59.0,,0.00,WUHU21623XXSP,2013-09-19 21:07:00,
2013-09-19 17:12:00,76.3,68.0,29.97,SW,225,0.0,0.0,75,0.00,RMK 73.0/58.0,,0.00,WUHU21623XXSP,2013-09-19 21:12:00,
2013-09-19 17:17:00,76.5,67.8,29.97,SSW,202,0.0,0.0,74,0.00,RMK 73.0/59.0,,0.00,WUHU21623XXSP,2013-09-19 21:17:00,
2013-09-19 17:22:00,76.7,68.0,29.97,SW,225,0.0,0.0,74,0.00,RMK 73.0/59.0,,0.00,WUHU21623XXSP,2013-09-19 21:22:00,
2013-09-19 17:27:00,76.9,68.2,29.97,SSW,202,0.0,0.0,74,0.00,RMK 73.0/59.0,,0.00,WUHU21623XXSP,2013-09-19 21:27:00,
2013-09-19 17:32:00,76.9,68.2,29.97,SW,225,0.0,0.0,74,0.00,RMK 73.0/59.0,,0.00,WUHU21623XXSP,2013-09-19 21:32:00,
2013-09-19 17:37:00,76.9,68.2,29.96,WSW,247,0.0,0.0,74,0.00,RMK 73.0/60.0,,0.00,WUHU21623XXSP,2013-09-19 21:37:00,
2013-09-19 17:42:00,76.7,68.0,29.97,SW,225,0.0,0.0,74,0.00,RMK 73.2/59.0,,0.00,WUHU21623XXSP,2013-09-19 21:42:00,
2013-09-19 17:47:00,76.5,67.8,29.95,SW,225,0.0,0.0,74,0.00,RMK 73.2/59.0,,0.00,WUHU21623XXSP,2013-09-19 21:47:00,
2013-09-19 17:52:00,76.5,68.1,29.96,SW,225,0.0,0.0,75,0.00,RMK 73.2/59.0,,0.00,WUHU21623XXSP,2013-09-19 21:52:00,
2013-09-19 17:57:00,76.5,68.1,29.95,SSW,202,0.0,0.0,75,0.00,RMK 73.4/59.0,,0.00,WUHU21623XXSP,2013-09-19 21:57:00,
2013-09-19 18:02:00,76.3,68.0,29.95,WSW,247,0.0,0.0,75,0.00,RMK 73.4/59.0,,0.00,WUHU21623XXSP,2013-09-19 22:02:00,
2013-09-19 18:07:00,76.1,67.8,29.95,WSW,247,0.0,0.0,75,0.00,RMK 73.6/59.0,,0.00,WUHU21623XXSP,2013-09-19 22:07:00,
2013-09-19 18:12:00,76.1,67.8,29.94,SW,225,0.0,0.0,75,0.00,RMK 73.6/59.0,,0.00,WUHU21623XXSP,2013-09-19 22:12:00,
2013-09-19 18:17:00,76.1,67.8,29.95,SE,135,0.0,0.0,75,0.00,RMK 73.8/59.0,,0.00,WUHU21623XXSP,2013-09-19 22:17:00,
2013-09-19 18:22:00,76.0,67.7,29.94,WSW,247,0.0,0.0,75,0.00,RMK 73.8/58.0,,0.00,WUHU21623XXSP,2013-09-19 22:22:00,
2013-09-19 18:27:00,75.8,67.5,29.94,WSW,247,0.0,0.0,75,0.00,RMK 73.8/59.0,,0.00,WUHU21623XXSP,2013-09-19 22:27:00,
2013-09-19 18:32:00,75.6,67.3,29.94,East,90,0.0,0.0,75,0.00,RMK 73.9/59.0,,0.00,WUHU21623XXSP,2013-09-19 22:32:00,
2013-09-19 18:37:00,75.4,67.5,29.94,SSW,202,0.0,0.0,76,0.00,RMK 73.9/59.0,,0.00,WUHU21623XXSP,2013-09-19 22:37:00,
2013-09-19 18:42:00,75.2,67.3,29.93,SSW,202,0.0,0.0,76,0.00,RMK 73.9/58.0,,0.00,WUHU21623XXSP,2013-09-19 22:42:00,
2013-09-19 18:47:00,75.1,67.2,29.93,SW,225,0.0,0.0,76,0.00,RMK 74.1/58.0,,0.00,WUHU21623XXSP,2013-09-19 22:47:00,
2013-09-19 18:52:00,74.9,67.0,29.93,SSW,202,0.0,0.0,76,0.00,RMK 74.1/58.0,,0.00,WUHU21623XXSP,2013-09-19 22:52:00,
2013-09-19 18:57:00,74.5,66.9,29.94,SSE,157,0.0,0.0,77,0.00,RMK 74.1/58.0,,0.00,WUHU21623XXSP,2013-09-19 22:57:00,
2013-09-19 19:03:00,74.3,66.8,29.94,SSW,202,0.0,0.0,77,0.00,RMK 74.1/58.0,,0.00,WUHU21623XXSP,2013-09-19 23:03:00,
2013-09-19 19:08:00,74.0,66.8,29.94,SW,225,0.0,0.0,78,0.00,RMK 74.1/58.0,,0.00,WUHU21623XXSP,2013-09-19 23:08:00,
2013-09-19 19:13:00,74.0,66.8,29.94,SW,225,0.0,0.0,78,0.00,RMK 74.1/58.0,,0.00,WUHU21623XXSP,2013-09-19 23:13:00,
2013-09-19 19:18:00,73.6,66.4,29.94,WSW,247,0.0,0.0,78,0.00,RMK 74.1/58.0,,0.00,WUHU21623XXSP,2013-09-19 23:18:00,
2013-09-19 19:23:00,73.3,66.1,29.94,SSW,202,0.0,0.0,78,0.00,RMK 74.1/58.0,,0.00,WUHU21623XXSP,2013-09-19 23:23:00,
2013-09-19 19:28:00,73.1,65.9,29.94,SSW,202,0.0,0.0,78,0.00,RMK 74.1/58.0,,0.00,WUHU21623XXSP,2013-09-19 23:28:00,
2013-09-19 19:33:00,72.9,65.8,29.94,SSW,202,0.0,0.0,78,0.00,RMK 74.1/58.0,,0.00,WUHU21623XXSP,2013-09-19 23:33:00,
2013-09-19 19:38:00,72.7,65.9,29.94,WSW,247,0.0,0.0,79,0.00,RMK 74.1/58.0,,0.00,WUHU21623XXSP,2013-09-19 23:38:00,
2013-09-19 19:43:00,72.5,65.7,29.93,SSW,202,0.0,0.0,79,0.00,RMK 74.1/58.0,,0.00,WUHU21623XXSP,2013-09-19 23:43:00,
2013-09-19 19:48:00,72.4,65.6,29.93,South,180,0.0,0.0,79,0.00,RMK 73.9/58.0,,0.00,WUHU21623XXSP,2013-09-19 23:48:00,
2013-09-19 19:53:00,72.0,65.2,29.93,SSW,202,0.0,0.0,79,0.00,RMK 73.9/59.0,,0.00,WUHU21623XXSP,2013-09-19 23:53:00,
2013-09-19 19:58:00,71.8,65.4,29.93,SSW,202,0.0,0.0,80,0.00,RMK 73.9/59.0,,0.00,WUHU21623XXSP,2013-09-19 23:58:00,
2013-09-19 20:03:00,71.6,65.2,29.93,WSW,247,0.0,0.0,80,0.00,RMK 74.1/58.0,,0.00,WUHU21623XXSP,2013-09-20 00:03:00,
2013-09-19 20:08:00,71.3,65.2,29.93,SSW,202,0.0,0.0,81,0.00,RMK 74.1/58.0,,0.00,WUHU21623XXSP,2013-09-20 00:08:00,
2013-09-19 20:13:00,71.3,65.2,29.93,SW,225,0.0,0.0,81,0.00,RMK 74.1/58.0,,0.00,WUHU21623XXSP,2013-09-20 00:13:00,
2013-09-19 20:18:00,70.9,64.9,29.94,SSW,202,0.0,0.0,81,0.00,RMK 74.3/58.0,,0.00,WUHU21623XXSP,2013-09-20 00:18:00,
2013-09-19 20:23:00,70.9,65.2,29.93,SW,225,0.0,0.0,82,0.00,RMK 74.3/58.0,,0.00,WUHU21623XXSP,2013-09-20 00:23:00,
2013-09-19 20:28:00,70.9,65.2,29.93,South,180,0.0,0.0,82,0.00,RMK 74.3/58.0,,0.00,WUHU21623XXSP,2013-09-20 00:28:00,
2013-09-19 20:33:00,70.7,65.3,29.94,SSW,202,0.0,0.0,83,0.00,RMK 74.3/58.0,,0.00,WUHU21623XXSP,2013-09-20 00:33:00,
2013-09-19 20:38:00,70.7,65.3,29.94,South,180,0.0,0.0,83,0.00,RMK 74.3/58.0,,0.00,WUHU21623XXSP,2013-09-20 00:38:00,
2013-09-19 20:43:00,70.4,65.0,29.94,SW,225,0.0,0.0,83,0.00,RMK 74.3/58.0,,0.00,WUHU21623XXSP,2013-09-20 00:43:00,
2013-09-19 20:48:00,70.4,65.0,29.95,SW,225,0.0,0.0,83,0.00,RMK 74.3/58.0,,0.00,WUHU21623XXSP,2013-09-20 00:48:00,
2013-09-19 20:53:00,70.4,65.0,29.94,SSW,202,0.0,0.0,83,0.00,RMK 74.5/58.0,,0.00,WUHU21623XXSP,2013-09-20 00:53:00,
2013-09-19 20:58:00,70.2,64.8,29.94,SSW,202,0.0,0.0,83,0.00,RMK 74.3/57.0,,0.00,WUHU21623XXSP,2013-09-20 00:58:00,
2013-09-19 21:03:00,70.0,64.6,29.95,SW,225,0.0,0.0,83,0.00,RMK 74.3/58.0,,0.00,WUHU21623XXSP,2013-09-20 01:03:00,
2013-09-19 21:08:00,69.8,64.5,29.94,SW,225,0.0,0.0,83,0.00,RMK 74.3/58.0,,0.00,WUHU21623XXSP,2013-09-20 01:08:00,
2013-09-19 21:13:00,69.8,64.5,29.95,SW,225,0.0,0.0,83,0.00,RMK 74.3/57.0,,0.00,WUHU21623XXSP,2013-09-20 01:13:00,
2013-09-19 21:18:00,69.8,64.8,29.95,SW,225,0.0,0.0,84,0.00,RMK 74.3/58.0,,0.00,WUHU21623XXSP,2013-09-20 01:18:00,
2013-09-19 21:23:00,69.7,64.7,29.95,SW,225,0.0,0.0,84,0.00,RMK 74.3/58.0,,0.00,WUHU21623XXSP,2013-09-20 01:23:00,
2013-09-19 21:28:00,69.7,64.7,29.95,SW,225,0.0,0.0,84,0.00,RMK 74.1/57.0,,0.00,WUHU21623XXSP,2013-09-20 01:28:00,
2013-09-19 21:33:00,69.5,64.5,29.95,SSW,202,0.0,0.0,84,0.00,RMK 74.1/58.0,,0.00,WUHU21623XXSP,2013-09-20 01:33:00,
2013-09-19 21:38:00,69.3,64.3,29.95,SW,225,0.0,0.0,84,0.00,RMK 74.1/58.0,,0.00,WUHU21623XXSP,2013-09-20 01:38:00,
2013-09-19 21:43:00,69.1,64.1,29.96,South,180,0.0,0.0,84,0.00,RMK 74.1/58.0,,0.00,WUHU21623XXSP,2013-09-20 01:43:00,
2013-09-19 21:48:00,68.9,64.2,29.95,WSW,247,0.0,0.0,85,0.00,RMK 74.1/58.0,,0.00,WUHU21623XXSP,2013-09-20 01:48:00,
2013-09-19 21:53:00,68.9,64.2,29.95,SSW,202,0.0,0.0,85,0.00,RMK 74.1/58.0,,0.00,WUHU21623XXSP,2013-09-20 01:53:00,
2013-09-19 21:58:00,68.9,64.2,29.95,SSW,202,0.0,0.0,85,0.00,RMK 74.1/58.0,,0.00,WUHU21623XXSP,2013-09-20 01:58:00,
2013-09-19 22:03:00,68.9,64.6,29.95,SSW,202,0.0,0.0,86,0.00,RMK 74.1/58.0,,0.00,WUHU21623XXSP,2013-09-20 02:03:00,
2013-09-19 22:08:00,68.8,64.5,29.95,SW,225,0.0,0.0,86,0.00,RMK 74.1/58.0,,0.00,WUHU21623XXSP,2013-09-20 02:08:00,
2013-09-19 22:13:00,68.8,64.5,29.95,South,180,0.0,0.0,86,0.00,RMK 74.1/58.0,,0.00,WUHU21623XXSP,2013-09-20 02:13:00,
2013-09-19 22:18:00,68.6,64.3,29.95,SW,225,0.0,0.0,86,0.00,RMK 74.1/58.0,,0.00,WUHU21623XXSP,2013-09-20 02:18:00,
2013-09-19 22:23:00,68.6,64.3,29.95,SSW,202,0.0,0.0,86,0.00,RMK 74.1/58.0,,0.00,WUHU21623XXSP,2013-09-20 02:23:00,
2013-09-19 22:28:00,68.6,64.3,29.95,SSW,202,0.0,0.0,86,0.00,RMK 74.1/58.0,,0.00,WUHU21623XXSP,2013-09-20 02:28:00,
2013-09-19 22:33:00,68.4,64.1,29.95,SW,225,0.0,0.0,86,0.00,RMK 74.1/59.0,,0.00,WUHU21623XXSP,2013-09-20 02:33:00,
2013-09-19 22:38:00,68.4,64.1,29.95,South,180,0.0,0.0,86,0.00,RMK 74.1/59.0,,0.00,WUHU21623XXSP,2013-09-20 02:38:00,
2013-09-19 22:43:00,68.4,64.1,29.95,SW,225,0.0,0.0,86,0.00,RMK 74.1/59.0,,0.00,WUHU21623XXSP,2013-09-20 02:43:00,
2013-09-19 22:48:00,68.2,64.2,29.95,SSW,202,0.0,0.0,87,0.00,RMK 74.1/59.0,,0.00,WUHU21623XXSP,2013-09-20 02:48:00,
2013-09-19 22:53:00,68.2,64.2,29.95,SSW,202,0.0,0.0,87,0.00,RMK 74.1/59.0,,0.00,WUHU21623XXSP,2013-09-20 02:53:00,
2013-09-19 22:58:00,68.2,64.2,29.95,SSW,202,0.0,0.0,87,0.00,RMK 74.1/59.0,,0.00,WUHU21623XXSP,2013-09-20 02:58:00,
2013-09-19 23:03:00,68.2,64.2,29.95,SSW,202,0.0,0.0,87,0.00,RMK 74.1/59.0,,0.00,WUHU21623XXSP,2013-09-20 03:03:00,
2013-09-19 23:08:00,68.2,64.2,29.95,SSW,202,0.0,0.0,87,0.00,RMK 74.1/59.0,,0.00,WUHU21623XXSP,2013-09-20 03:08:00,
2013-09-19 23:13:00,68.2,64.2,29.95,SSW,202,0.0,0.0,87,0.00,RMK 74.1/59.0,,0.00,WUHU21623XXSP,2013-09-20 03:13:00,
2013-09-19 23:18:00,68.2,64.2,29.94,SW,225,0.0,0.0,87,0.00,RMK 74.1/59.0,,0.00,WUHU21623XXSP,2013-09-20 03:18:00,
2013-09-19 23:23:00,68.2,64.2,29.94,SW,225,0.0,0.0,87,0.00,RMK 74.3/59.0,,0.00,WUHU21623XXSP,2013-09-20 03:23:00,
2013-09-19 23:28:00,68.2,64.2,29.94,SW,225,0.0,0.0,87,0.00,RMK 74.3/59.0,,0.00,WUHU21623XXSP,2013-09-20 03:28:00,
2013-09-19 23:33:00,68.2,64.5,29.93,WSW,247,0.0,0.0,88,0.00,RMK 74.3/59.0,,0.00,WUHU21623XXSP,2013-09-20 03:33:00,
2013-09-19 23:38:00,68.2,64.5,29.93,SSE,157,0.0,0.0,88,0.00,RMK 74.3/59.0,,0.00,WUHU21623XXSP,2013-09-20 03:38:00,
2013-09-19 23:43:00,68.2,64.5,29.93,WSW,247,0.0,0.0,88,0.00,RMK 74.3/59.0,,0.00,WUHU21623XXSP,2013-09-20 03:43:00,
2013-09-19 23:48:00,68.0,64.3,29.93,South,180,0.0,0.0,88,0.00,RMK 74.3/59.0,,0.00,WUHU21623XXSP,2013-09-20 03:48:00,
2013-09-19 23:53:00,68.0,64.3,29.93,South,180,0.0,0.0,88,0.00,RMK 74.3/59.0,,0.00,WUHU21623XXSP,2013-09-20 03:53:00,
2013-09-19 23:58:00,68.0,64.3,29.93,SSW,202,0.0,0.0,88,0.00,RMK 74.3/59.0,,0.00,WUHU21623XXSP,2013-09-20 03:58:00,